Orenge 7 — JL6148 — position and weather

sailwx.info

Track history (hours):
 
Tides and Currents Weather Stations Pressure Air Temp Water Temp Dewpoint Dewpoint Depression Visibility Wind Speed Wind Dir Waves Ship Positions

Orenge 7

Last reported at 2017-Dec-14 17:54 UTC. Time now 2017-Dec-15 06:44 UTC.
Position N 34°27' E 134°03'.

Length 163 m; draft 4.9 m.

Type: Passenger vessel. MMSI: 431500186.

Date/timePositionNaut miles runAvg speedWind from/ knotsBaromVisibWave heightAir tempDewpointWater temp
2017-Dec-14 17:54N 34°27' E 134°03'1119.5
2017-Dec-14 17:20N 34°24' E 134°16'720.6
2017-Dec-14 17:00N 34°26' E 134°24'1020.7
2017-Dec-14 16:30N 34°29' E 134°36'1020.3
2017-Dec-14 16:00N 34°33' E 134°47'1717.4
2017-Dec-14 15:00N 34°36' E 135°08'1020.0
2017-Dec-14 14:31N 34°37' E 135°20'5 9.6
2017-Dec-14 14:00N 34°37' E 135°26'0 0.0
2017-Dec-14 13:30N 34°37' E 135°26'0 0.0
2017-Dec-14 13:00N 34°37' E 135°26'0 0.0
2017-Dec-14 12:30N 34°37' E 135°26'0 0.0
2017-Dec-14 12:00N 34°37' E 135°26'1 2.8
2017-Dec-14 11:31N 34°37' E 135°24'918.1
2017-Dec-14 11:00N 34°35' E 135°14'1019.6
2017-Dec-14 10:31N 34°36' E 135°02'918.2
2017-Dec-14 10:01N 34°34' E 134°51'1020.1
2017-Dec-14 09:31N 34°30' E 134°40'1020.5
2017-Dec-14 09:00N 34°26' E 134°28'1120.1
2017-Dec-14 08:28N 34°23' E 134°16'2914.9
2017-Dec-14 06:31N 34°18' E 133°41'017.7
2017-Dec-14 06:31N 34°18' E 133°41'27 2.0
2017-Dec-13 17:05N 34°25' E 134°13'319.7
2017-Dec-13 16:56N 34°24' E 134°17'920.3
2017-Dec-13 16:30N 34°27' E 134°27'1020.5
2017-Dec-13 16:00N 34°31' E 134°38'1019.9
2017-Dec-13 15:30N 34°34' E 134°49'918.7
2017-Dec-13 15:00N 34°38' E 135°00'917.8
2017-Dec-13 14:31N 34°36' E 135°11'1019.3
2017-Dec-13 14:01N 34°38' E 135°22'3 5.7
2017-Dec-13 13:30N 34°37' E 135°26'0 0.0
2017-Dec-13 12:58N 34°37' E 135°26'0 0.0
2017-Dec-13 12:31N 34°37' E 135°26'0 0.0
2017-Dec-13 12:01N 34°37' E 135°26'0 0.2
2017-Dec-13 11:30N 34°37' E 135°26'612.9
2017-Dec-13 11:00N 34°36' E 135°18'1020.1
2017-Dec-13 10:30N 34°35' E 135°06'918.6
2017-Dec-13 10:00N 34°35' E 134°55'1020.5
2017-Dec-13 09:30N 34°31' E 134°43'1020.8
2017-Dec-13 09:00N 34°27' E 134°32'1020.8
2017-Dec-13 08:30N 34°24' E 134°20'3215.4
2017-Dec-13 06:25N 34°18' E 133°41'20 1.5
2017-Dec-12 17:18N 34°27' E 134°03'620.0
2017-Dec-12 17:00N 34°26' E 134°11'1019.3
2017-Dec-12 16:30N 34°25' E 134°22'1020.5
2017-Dec-12 16:00N 34°29' E 134°34'1019.9
2017-Dec-12 15:30N 34°33' E 134°45'919.0
2017-Dec-12 15:01N 34°36' E 134°56'816.6
2017-Dec-12 14:30N 34°36' E 135°06'1019.5
2017-Dec-12 14:01N 34°37' E 135°17'713.6
2017-Dec-12 13:31N 34°37' E 135°26'0 0.4
2017-Dec-12 13:00N 34°37' E 135°26'0 0.0
2017-Dec-12 12:30N 34°37' E 135°26'0 0.0
2017-Dec-12 12:00N 34°37' E 135°26'0 0.3
2017-Dec-12 11:30N 34°37' E 135°26'611.7
2017-Dec-12 11:00N 34°36' E 135°19'714.3
2017-Dec-12 10:30N 34°35' E 135°10'917.1
2017-Dec-12 10:00N 34°37' E 135°00'1020.9
2017-Dec-12 09:30N 34°33' E 134°49'1121.1
2017-Dec-12 09:01N 34°29' E 134°37'1121.2
2017-Dec-12 08:28N 34°25' E 134°24'1020.7
2017-Dec-12 08:00N 34°24' E 134°12'8 0.6
2017-Dec-11 17:07N 34°27' E 134°03'517.4
2017-Dec-11 16:51N 34°26' E 134°08'1017.6
2017-Dec-11 16:16N 34°25' E 134°21'518.3
2017-Dec-11 16:00N 34°26' E 134°26'918.4
2017-Dec-11 15:30N 34°30' E 134°37'918.3
2017-Dec-11 15:00N 34°33' E 134°47'918.4
2017-Dec-11 14:30N 34°37' E 134°57'816.9
2017-Dec-11 14:00N 34°36' E 135°07'1019.1
2017-Dec-11 13:30N 34°37' E 135°19'611.6
2017-Dec-11 13:00N 34°37' E 135°26'0 0.0
2017-Dec-11 12:28N 34°37' E 135°26'0 0.0
2017-Dec-11 11:55N 34°37' E 135°26'0 0.0
2017-Dec-11 11:28N 34°37' E 135°26'0 0.0
2017-Dec-11 10:58N 34°37' E 135°26'0 0.0
2017-Dec-11 10:28N 34°37' E 135°26'0 0.0
2017-Dec-11 09:58N 34°37' E 135°26'0 0.0
2017-Dec-11 09:28N 34°37' E 135°26'0 0.0
2017-Dec-11 08:58N 34°37' E 135°26'0 0.0
2017-Dec-11 08:28N 34°37' E 135°26'0 0.0
2017-Dec-11 07:58N 34°37' E 135°26'0 0.0
2017-Dec-11 07:28N 34°37' E 135°26'0 0.0
2017-Dec-11 06:52N 34°37' E 135°26'0 0.0
2017-Dec-11 06:28N 34°37' E 135°26'0 0.0
2017-Dec-11 05:58N 34°37' E 135°26'0 0.0
2017-Dec-11 05:28N 34°37' E 135°26'0 0.0
2017-Dec-11 04:58N 34°37' E 135°26'0 0.0
2017-Dec-11 04:28N 34°37' E 135°26'0 0.0
2017-Dec-11 03:58N 34°37' E 135°26'0 0.0
2017-Dec-11 03:28N 34°37' E 135°26'0 0.0
2017-Dec-11 02:55N 34°37' E 135°26'0 0.0
2017-Dec-11 02:28N 34°37' E 135°26'0 0.0
2017-Dec-11 01:58N 34°37' E 135°26'0 0.0
2017-Dec-11 01:28N 34°37' E 135°26'0 0.0
2017-Dec-11 00:58N 34°37' E 135°26'0 0.0
2017-Dec-11 00:28N 34°37' E 135°26'0 0.0
2017-Dec-10 23:58N 34°37' E 135°26'0 0.0
2017-Dec-10 23:25N 34°37' E 135°26'0 0.0
2017-Dec-10 22:58N 34°37' E 135°26'0 0.0
2017-Dec-10 22:28N 34°37' E 135°26'0 0.0
2017-Dec-10 21:58N 34°37' E 135°26'0 0.0
2017-Dec-10 21:28N 34°37' E 135°26'0 0.2
2017-Dec-10 21:00N 34°37' E 135°26'611.8
2017-Dec-10 20:30N 34°36' E 135°19'918.8
2017-Dec-10 20:00N 34°35' E 135°07'917.3
2017-Dec-10 19:30N 34°36' E 134°57'1019.0
2017-Dec-10 19:00N 34°32' E 134°47'1019.3
2017-Dec-10 18:30N 34°29' E 134°36'1019.5
2017-Dec-10 18:00N 34°25' E 134°25'918.9
2017-Dec-10 17:30N 34°24' E 134°13'917.8
2017-Dec-10 17:00N 34°26' E 134°03'2014.1
2017-Dec-10 15:36N 34°18' E 133°41'21 0.9
2017-Dec-09 17:06N 34°27' E 134°03'417.4
2017-Dec-09 16:51N 34°26' E 134°09'917.6
2017-Dec-09 16:20N 34°25' E 134°19'617.8
2017-Dec-09 16:00N 34°27' E 134°26'918.1
2017-Dec-09 15:30N 34°31' E 134°36'918.7
2017-Dec-09 15:00N 34°34' E 134°47'1019.2
2017-Dec-09 14:30N 34°37' E 134°58'918.0
2017-Dec-09 14:01N 34°36' E 135°08'918.6
2017-Dec-09 13:31N 34°37' E 135°20'510.2
2017-Dec-09 13:01N 34°37' E 135°26'0 0.0
2017-Dec-09 12:28N 34°37' E 135°26'0 0.0
2017-Dec-09 11:58N 34°37' E 135°26'0 0.0
2017-Dec-09 11:28N 34°37' E 135°26'0 0.0
2017-Dec-09 10:58N 34°37' E 135°26'0 0.0
2017-Dec-09 10:28N 34°37' E 135°26'0 0.0
2017-Dec-09 09:58N 34°37' E 135°26'0 0.0
2017-Dec-09 09:25N 34°37' E 135°26'0 0.0
2017-Dec-09 08:58N 34°37' E 135°26'0 0.0
2017-Dec-09 08:28N 34°37' E 135°26'0 0.0
2017-Dec-09 07:58N 34°37' E 135°26'0 0.0
2017-Dec-09 07:28N 34°37' E 135°26'0 0.0
2017-Dec-09 06:58N 34°37' E 135°26'0 0.0
2017-Dec-09 06:25N 34°37' E 135°26'0 0.0
2017-Dec-09 05:58N 34°37' E 135°26'0 0.0
2017-Dec-09 05:28N 34°37' E 135°26'0 0.0
2017-Dec-09 04:58N 34°37' E 135°26'0 0.0
2017-Dec-09 04:28N 34°37' E 135°26'0 0.0
2017-Dec-09 03:58N 34°37' E 135°26'0 0.0
2017-Dec-09 03:28N 34°37' E 135°26'0 0.0
2017-Dec-09 02:58N 34°37' E 135°26'0 0.0
2017-Dec-09 02:28N 34°37' E 135°26'0 0.0
2017-Dec-09 01:58N 34°37' E 135°26'0 0.0
2017-Dec-09 01:25N 34°37' E 135°26'0 0.0
2017-Dec-09 00:58N 34°37' E 135°26'0 0.0
2017-Dec-09 00:30N 34°37' E 135°26'0 0.0
2017-Dec-08 23:58N 34°37' E 135°26'0 0.0
2017-Dec-08 23:28N 34°37' E 135°26'0 0.0
2017-Dec-08 22:58N 34°37' E 135°26'0 0.0
2017-Dec-08 22:28N 34°37' E 135°26'0 0.0
2017-Dec-08 21:58N 34°37' E 135°26'0 0.0
2017-Dec-08 21:28N 34°37' E 135°26'0 0.1
2017-Dec-08 21:00N 34°37' E 135°26'612.5
2017-Dec-08 20:30N 34°35' E 135°19'918.5
2017-Dec-08 20:00N 34°35' E 135°07'1019.0
2017-Dec-08 19:31N 34°36' E 134°56'1020.2
2017-Dec-08 19:00N 34°31' E 134°45'1019.4
2017-Dec-08 18:30N 34°27' E 134°34'1019.2
2017-Dec-08 18:00N 34°24' E 134°23'1019.1
2017-Dec-08 17:30N 34°25' E 134°12'2614.6
2017-Dec-08 15:45N 34°18' E 133°41'20 0.9
2017-Dec-07 16:56N 34°27' E 134°03'1517.5
2017-Dec-07 16:05N 34°25' E 134°21'218.5
2017-Dec-07 15:59N 34°25' E 134°24'918.8
2017-Dec-07 15:30N 34°29' E 134°34'919.0
2017-Dec-07 15:00N 34°32' E 134°44'1020.8
2017-Dec-07 14:31N 34°37' E 134°56'1019.8
2017-Dec-07 14:00N 34°36' E 135°08'1019.7
2017-Dec-07 13:31N 34°37' E 135°20'510.2
2017-Dec-07 13:00N 34°37' E 135°26'0 0.0
2017-Dec-07 12:27N 34°37' E 135°26'0 0.0
2017-Dec-07 11:55N 34°37' E 135°26'0 0.0
2017-Dec-07 11:31N 34°37' E 135°26'0 0.0
2017-Dec-07 11:00N 34°37' E 135°26'0 0.0
2017-Dec-07 10:31N 34°37' E 135°26'0 0.0
2017-Dec-07 10:01N 34°37' E 135°26'0 0.0
2017-Dec-07 09:31N 34°37' E 135°26'0 0.0
2017-Dec-07 08:58N 34°37' E 135°26'0 0.0
2017-Dec-07 08:31N 34°37' E 135°26'0 0.0
2017-Dec-07 07:55N 34°37' E 135°26'0 0.0
2017-Dec-07 07:31N 34°37' E 135°26'0 0.0
2017-Dec-07 07:01N 34°37' E 135°26'0 0.0
2017-Dec-07 06:31N 34°37' E 135°26'0 0.0
2017-Dec-07 05:58N 34°37' E 135°26'0 0.0
2017-Dec-07 05:27N 34°37' E 135°26'0 0.0
2017-Dec-07 05:01N 34°37' E 135°26'0 0.0
2017-Dec-07 04:28N 34°37' E 135°26'0 0.0
2017-Dec-07 04:00N 34°37' E 135°26'0 0.0
2017-Dec-07 03:24N 34°37' E 135°26'0 0.0
2017-Dec-07 03:01N 34°37' E 135°26'0 0.0
2017-Dec-07 02:31N 34°37' E 135°26'0 0.0
2017-Dec-07 01:58N 34°37' E 135°26'0 0.0
2017-Dec-07 01:30N 34°37' E 135°26'0 0.0
2017-Dec-07 01:01N 34°37' E 135°26'0 0.0
2017-Dec-07 00:31N 34°37' E 135°26'0 0.0
2017-Dec-06 23:58N 34°37' E 135°26'0 0.0
2017-Dec-06 23:27N 34°37' E 135°26'0 0.0
2017-Dec-06 23:00N 34°37' E 135°26'0 0.0
2017-Dec-06 22:30N 34°37' E 135°26'0 0.0
2017-Dec-06 22:01N 34°37' E 135°26'0 0.0
2017-Dec-06 21:28N 34°37' E 135°26'0 0.3
2017-Dec-06 21:01N 34°37' E 135°26'  
Track history (hours):
 
Tides and Currents Weather Stations Pressure Air Temp Water Temp Dewpoint Dewpoint Depression Visibility Wind Speed Wind Dir Waves Ship Positions

Orenge 7

Last reported at 2017-Dec-14 17:54 UTC. Time now 2017-Dec-15 06:44 UTC.
Position N 34°27' E 134°03'.

Length 163 m; draft 4.9 m.

Type: Passenger vessel. MMSI: 431500186.

Date/timePositionNaut miles runAvg speedWind from/ knotsBaromVisibWave heightAir tempDewpointWater temp
2017-Dec-14 17:54N 34°27' E 134°03'1119.5
2017-Dec-14 17:20N 34°24' E 134°16'720.6
2017-Dec-14 17:00N 34°26' E 134°24'1020.7
2017-Dec-14 16:30N 34°29' E 134°36'1020.3
2017-Dec-14 16:00N 34°33' E 134°47'1717.4
2017-Dec-14 15:00N 34°36' E 135°08'1020.0
2017-Dec-14 14:31N 34°37' E 135°20'5 9.6
2017-Dec-14 14:00N 34°37' E 135°26'0 0.0
2017-Dec-14 13:30N 34°37' E 135°26'0 0.0
2017-Dec-14 13:00N 34°37' E 135°26'0 0.0
2017-Dec-14 12:30N 34°37' E 135°26'0 0.0
2017-Dec-14 12:00N 34°37' E 135°26'1 2.8
2017-Dec-14 11:31N 34°37' E 135°24'918.1
2017-Dec-14 11:00N 34°35' E 135°14'1019.6
2017-Dec-14 10:31N 34°36' E 135°02'918.2
2017-Dec-14 10:01N 34°34' E 134°51'1020.1
2017-Dec-14 09:31N 34°30' E 134°40'1020.5
2017-Dec-14 09:00N 34°26' E 134°28'1120.1
2017-Dec-14 08:28N 34°23' E 134°16'2914.9
2017-Dec-14 06:31N 34°18' E 133°41'017.7
2017-Dec-14 06:31N 34°18' E 133°41'27 2.0
2017-Dec-13 17:05N 34°25' E 134°13'319.7
2017-Dec-13 16:56N 34°24' E 134°17'920.3
2017-Dec-13 16:30N 34°27' E 134°27'1020.5
2017-Dec-13 16:00N 34°31' E 134°38'1019.9
2017-Dec-13 15:30N 34°34' E 134°49'918.7
2017-Dec-13 15:00N 34°38' E 135°00'917.8
2017-Dec-13 14:31N 34°36' E 135°11'1019.3
2017-Dec-13 14:01N 34°38' E 135°22'3 5.7
2017-Dec-13 13:30N 34°37' E 135°26'0 0.0
2017-Dec-13 12:58N 34°37' E 135°26'0 0.0
2017-Dec-13 12:31N 34°37' E 135°26'0 0.0
2017-Dec-13 12:01N 34°37' E 135°26'0 0.2
2017-Dec-13 11:30N 34°37' E 135°26'612.9
2017-Dec-13 11:00N 34°36' E 135°18'1020.1
2017-Dec-13 10:30N 34°35' E 135°06'918.6
2017-Dec-13 10:00N 34°35' E 134°55'1020.5
2017-Dec-13 09:30N 34°31' E 134°43'1020.8
2017-Dec-13 09:00N 34°27' E 134°32'1020.8
2017-Dec-13 08:30N 34°24' E 134°20'3215.4
2017-Dec-13 06:25N 34°18' E 133°41'20 1.5
2017-Dec-12 17:18N 34°27' E 134°03'620.0
2017-Dec-12 17:00N 34°26' E 134°11'1019.3
2017-Dec-12 16:30N 34°25' E 134°22'1020.5
2017-Dec-12 16:00N 34°29' E 134°34'1019.9
2017-Dec-12 15:30N 34°33' E 134°45'919.0
2017-Dec-12 15:01N 34°36' E 134°56'816.6
2017-Dec-12 14:30N 34°36' E 135°06'1019.5
2017-Dec-12 14:01N 34°37' E 135°17'713.6
2017-Dec-12 13:31N 34°37' E 135°26'0 0.4
2017-Dec-12 13:00N 34°37' E 135°26'0 0.0
2017-Dec-12 12:30N 34°37' E 135°26'0 0.0
2017-Dec-12 12:00N 34°37' E 135°26'0 0.3
2017-Dec-12 11:30N 34°37' E 135°26'611.7
2017-Dec-12 11:00N 34°36' E 135°19'714.3
2017-Dec-12 10:30N 34°35' E 135°10'917.1
2017-Dec-12 10:00N 34°37' E 135°00'1020.9
2017-Dec-12 09:30N 34°33' E 134°49'1121.1
2017-Dec-12 09:01N 34°29' E 134°37'1121.2
2017-Dec-12 08:28N 34°25' E 134°24'1020.7
2017-Dec-12 08:00N 34°24' E 134°12'8 0.6
2017-Dec-11 17:07N 34°27' E 134°03'517.4
2017-Dec-11 16:51N 34°26' E 134°08'1017.6
2017-Dec-11 16:16N 34°25' E 134°21'518.3
2017-Dec-11 16:00N 34°26' E 134°26'918.4
2017-Dec-11 15:30N 34°30' E 134°37'918.3
2017-Dec-11 15:00N 34°33' E 134°47'918.4
2017-Dec-11 14:30N 34°37' E 134°57'816.9
2017-Dec-11 14:00N 34°36' E 135°07'1019.1
2017-Dec-11 13:30N 34°37' E 135°19'611.6
2017-Dec-11 13:00N 34°37' E 135°26'0 0.0
2017-Dec-11 12:28N 34°37' E 135°26'0 0.0
2017-Dec-11 11:55N 34°37' E 135°26'0 0.0
2017-Dec-11 11:28N 34°37' E 135°26'0 0.0
2017-Dec-11 10:58N 34°37' E 135°26'0 0.0
2017-Dec-11 10:28N 34°37' E 135°26'0 0.0
2017-Dec-11 09:58N 34°37' E 135°26'0 0.0
2017-Dec-11 09:28N 34°37' E 135°26'0 0.0
2017-Dec-11 08:58N 34°37' E 135°26'0 0.0
2017-Dec-11 08:28N 34°37' E 135°26'0 0.0
2017-Dec-11 07:58N 34°37' E 135°26'0 0.0
2017-Dec-11 07:28N 34°37' E 135°26'0 0.0
2017-Dec-11 06:52N 34°37' E 135°26'0 0.0
2017-Dec-11 06:28N 34°37' E 135°26'0 0.0
2017-Dec-11 05:58N 34°37' E 135°26'0 0.0
2017-Dec-11 05:28N 34°37' E 135°26'0 0.0
2017-Dec-11 04:58N 34°37' E 135°26'0 0.0
2017-Dec-11 04:28N 34°37' E 135°26'0 0.0
2017-Dec-11 03:58N 34°37' E 135°26'0 0.0
2017-Dec-11 03:28N 34°37' E 135°26'0 0.0
2017-Dec-11 02:55N 34°37' E 135°26'0 0.0
2017-Dec-11 02:28N 34°37' E 135°26'0 0.0
2017-Dec-11 01:58N 34°37' E 135°26'0 0.0
2017-Dec-11 01:28N 34°37' E 135°26'0 0.0
2017-Dec-11 00:58N 34°37' E 135°26'0 0.0
2017-Dec-11 00:28N 34°37' E 135°26'0 0.0
2017-Dec-10 23:58N 34°37' E 135°26'0 0.0
2017-Dec-10 23:25N 34°37' E 135°26'0 0.0
2017-Dec-10 22:58N 34°37' E 135°26'0 0.0
2017-Dec-10 22:28N 34°37' E 135°26'0 0.0
2017-Dec-10 21:58N 34°37' E 135°26'0 0.0
2017-Dec-10 21:28N 34°37' E 135°26'0 0.2
2017-Dec-10 21:00N 34°37' E 135°26'611.8
2017-Dec-10 20:30N 34°36' E 135°19'918.8
2017-Dec-10 20:00N 34°35' E 135°07'917.3
2017-Dec-10 19:30N 34°36' E 134°57'1019.0
2017-Dec-10 19:00N 34°32' E 134°47'1019.3
2017-Dec-10 18:30N 34°29' E 134°36'1019.5
2017-Dec-10 18:00N 34°25' E 134°25'918.9
2017-Dec-10 17:30N 34°24' E 134°13'917.8
2017-Dec-10 17:00N 34°26' E 134°03'2014.1
2017-Dec-10 15:36N 34°18' E 133°41'21 0.9
2017-Dec-09 17:06N 34°27' E 134°03'417.4
2017-Dec-09 16:51N 34°26' E 134°09'917.6
2017-Dec-09 16:20N 34°25' E 134°19'617.8
2017-Dec-09 16:00N 34°27' E 134°26'918.1
2017-Dec-09 15:30N 34°31' E 134°36'918.7
2017-Dec-09 15:00N 34°34' E 134°47'1019.2
2017-Dec-09 14:30N 34°37' E 134°58'918.0
2017-Dec-09 14:01N 34°36' E 135°08'918.6
2017-Dec-09 13:31N 34°37' E 135°20'510.2
2017-Dec-09 13:01N 34°37' E 135°26'0 0.0
2017-Dec-09 12:28N 34°37' E 135°26'0 0.0
2017-Dec-09 11:58N 34°37' E 135°26'0 0.0
2017-Dec-09 11:28N 34°37' E 135°26'0 0.0
2017-Dec-09 10:58N 34°37' E 135°26'0 0.0
2017-Dec-09 10:28N 34°37' E 135°26'0 0.0
2017-Dec-09 09:58N 34°37' E 135°26'0 0.0
2017-Dec-09 09:25N 34°37' E 135°26'0 0.0
2017-Dec-09 08:58N 34°37' E 135°26'0 0.0
2017-Dec-09 08:28N 34°37' E 135°26'0 0.0
2017-Dec-09 07:58N 34°37' E 135°26'0 0.0
2017-Dec-09 07:28N 34°37' E 135°26'0 0.0
2017-Dec-09 06:58N 34°37' E 135°26'0 0.0
2017-Dec-09 06:25N 34°37' E 135°26'0 0.0
2017-Dec-09 05:58N 34°37' E 135°26'0 0.0
2017-Dec-09 05:28N 34°37' E 135°26'0 0.0
2017-Dec-09 04:58N 34°37' E 135°26'0 0.0
2017-Dec-09 04:28N 34°37' E 135°26'0 0.0
2017-Dec-09 03:58N 34°37' E 135°26'0 0.0
2017-Dec-09 03:28N 34°37' E 135°26'0 0.0
2017-Dec-09 02:58N 34°37' E 135°26'0 0.0
2017-Dec-09 02:28N 34°37' E 135°26'0 0.0
2017-Dec-09 01:58N 34°37' E 135°26'0 0.0
2017-Dec-09 01:25N 34°37' E 135°26'0 0.0
2017-Dec-09 00:58N 34°37' E 135°26'0 0.0
2017-Dec-09 00:30N 34°37' E 135°26'0 0.0
2017-Dec-08 23:58N 34°37' E 135°26'0 0.0
2017-Dec-08 23:28N 34°37' E 135°26'0 0.0
2017-Dec-08 22:58N 34°37' E 135°26'0 0.0
2017-Dec-08 22:28N 34°37' E 135°26'0 0.0
2017-Dec-08 21:58N 34°37' E 135°26'0 0.0
2017-Dec-08 21:28N 34°37' E 135°26'0 0.1
2017-Dec-08 21:00N 34°37' E 135°26'612.5
2017-Dec-08 20:30N 34°35' E 135°19'918.5
2017-Dec-08 20:00N 34°35' E 135°07'1019.0
2017-Dec-08 19:31N 34°36' E 134°56'1020.2
2017-Dec-08 19:00N 34°31' E 134°45'1019.4
2017-Dec-08 18:30N 34°27' E 134°34'1019.2
2017-Dec-08 18:00N 34°24' E 134°23'1019.1
2017-Dec-08 17:30N 34°25' E 134°12'2614.6
2017-Dec-08 15:45N 34°18' E 133°41'20 0.9
2017-Dec-07 16:56N 34°27' E 134°03'1517.5
2017-Dec-07 16:05N 34°25' E 134°21'218.5
2017-Dec-07 15:59N 34°25' E 134°24'918.8
2017-Dec-07 15:30N 34°29' E 134°34'919.0
2017-Dec-07 15:00N 34°32' E 134°44'1020.8
2017-Dec-07 14:31N 34°37' E 134°56'1019.8
2017-Dec-07 14:00N 34°36' E 135°08'1019.7
2017-Dec-07 13:31N 34°37' E 135°20'510.2
2017-Dec-07 13:00N 34°37' E 135°26'0 0.0
2017-Dec-07 12:27N 34°37' E 135°26'0 0.0
2017-Dec-07 11:55N 34°37' E 135°26'0 0.0
2017-Dec-07 11:31N 34°37' E 135°26'0 0.0
2017-Dec-07 11:00N 34°37' E 135°26'0 0.0
2017-Dec-07 10:31N 34°37' E 135°26'0 0.0
2017-Dec-07 10:01N 34°37' E 135°26'0 0.0
2017-Dec-07 09:31N 34°37' E 135°26'0 0.0
2017-Dec-07 08:58N 34°37' E 135°26'0 0.0
2017-Dec-07 08:31N 34°37' E 135°26'0 0.0
2017-Dec-07 07:55N 34°37' E 135°26'0 0.0
2017-Dec-07 07:31N 34°37' E 135°26'0 0.0
2017-Dec-07 07:01N 34°37' E 135°26'0 0.0
2017-Dec-07 06:31N 34°37' E 135°26'0 0.0
2017-Dec-07 05:58N 34°37' E 135°26'0 0.0
2017-Dec-07 05:27N 34°37' E 135°26'0 0.0
2017-Dec-07 05:01N 34°37' E 135°26'0 0.0
2017-Dec-07 04:28N 34°37' E 135°26'0 0.0
2017-Dec-07 04:00N 34°37' E 135°26'0 0.0
2017-Dec-07 03:24N 34°37' E 135°26'0 0.0
2017-Dec-07 03:01N 34°37' E 135°26'0 0.0
2017-Dec-07 02:31N 34°37' E 135°26'0 0.0
2017-Dec-07 01:58N 34°37' E 135°26'0 0.0
2017-Dec-07 01:30N 34°37' E 135°26'0 0.0
2017-Dec-07 01:01N 34°37' E 135°26'0 0.0
2017-Dec-07 00:31N 34°37' E 135°26'0 0.0
2017-Dec-06 23:58N 34°37' E 135°26'0 0.0
2017-Dec-06 23:27N 34°37' E 135°26'0 0.0
2017-Dec-06 23:00N 34°37' E 135°26'0 0.0
2017-Dec-06 22:30N 34°37' E 135°26'0 0.0
2017-Dec-06 22:01N 34°37' E 135°26'0 0.0
2017-Dec-06 21:28N 34°37' E 135°26'0 0.3
2017-Dec-06 21:01N 34°37' E 135°26'  

Dump ship's entire track history